Weather History for K2D5 - November, 2013

Change the Weather History Date:

Friday, November 29, 2013

  Actual Average (KABR) Record (KABR)
Temperature  
Mean Temperature 22 °F 22 °F  
Max Temperature 33 °F 32 °F 55 °F (1951)
Min Temperature 12 °F 12 °F -26 °F (1964)
Degree Days  
Heating Degree Days 42 43  
Month to date heating degree days 1030  
Since 1 July heating degree days 1921  
Cooling Degree Days 0 0  
Month to date cooling degree days 0  
Year to date cooling degree days 525  
Moisture  
Dew Point 17 °F    
Average Humidity 81    
Maximum Humidity 100    
Minimum Humidity 60    
Precipitation  
Precipitation 0.00 in 0.02 in 0.16 in (1985)
Month to date precipitation 0.71  
Year to date precipitation 21.18  
Snow  
Snow 0.00 in - - ()
Month to date snowfall  
Since 1 July snowfall  
Snow Depth -    
Sea Level Pressure  
Sea Level Pressure 30.12 in    
Wind  
Wind Speed 11 mph (SSE)    
Max Wind Speed 23 mph    
Max Gust Speed 28 mph    
Visibility 10 miles    
Events      
T = Trace of Precipitation, MM = Missing Value Source: NWS Daily Summary

Daily Weather History Graph

Daily Weather History Graph

Search for Another Location

Airport or City:

Trip Planner

Search our weather history database for the weather conditions in past years. The results will help you decide how hot, cold, wet, or windy it might be!

Date:

Astronomy

Nov. 29, 2013 Rise Set
Actual Time 7:52 AM CST 4:48 PM CST
Civil Twilight 7:18 AM CST 5:22 PM CST
Nautical Twilight 6:41 AM CST 6:00 PM CST
Astronomical Twilight 6:05 AM CST 6:36 PM CST
Moon 3:48 AM CST 2:44 PM CST
Length of Visible Light 10h 04m
Length of Day
8h 56m
Waning Crescent, 14% of the Moon is Illuminated
Nov 29
Waning Crescent
Dec 2
New
Dec 9
First Quarter
Dec 17
Full
Dec 25
Last Quarter

Hourly Weather History & Observations

Time (CST) Temp. Windchill Dew Point Humidity Pressure Visibility Wind Dir Wind Speed Gust Speed Precip Events Conditions
12:15 AM 14.0 °F 3.9 °F 10.4 °F 86% 30.39 in 10.0 mi SE 6.9 mph - N/A   Clear
12:35 AM 14.0 °F 2.0 °F 10.4 °F 86% 30.38 in 10.0 mi SE 9.2 mph - N/A   Clear
12:55 AM 14.0 °F 2.9 °F 10.4 °F 86% 30.37 in 10.0 mi SE 8.1 mph - N/A   Clear
1:15 AM 14.0 °F 2.9 °F 10.4 °F 86% 30.36 in 10.0 mi SE 8.1 mph - N/A   Clear
1:35 AM 14.0 °F 1.2 °F 10.4 °F 86% 30.35 in 10.0 mi SE 10.4 mph - N/A   Clear
1:55 AM 12.2 °F -0.2 °F 8.6 °F 85% 30.34 in 10.0 mi SE 9.2 mph - N/A   Clear
2:15 AM 12.2 °F -0.2 °F 8.6 °F 85% 30.35 in 10.0 mi SE 9.2 mph - N/A   Clear
2:35 AM 12.2 °F -1.8 °F 8.6 °F 85% 30.34 in 10.0 mi SE 11.5 mph - N/A   Clear
2:55 AM 12.2 °F -1.8 °F 8.6 °F 85% 30.33 in 10.0 mi SE 11.5 mph - N/A   Clear
3:15 AM 14.0 °F -0.2 °F 10.4 °F 86% 30.32 in 10.0 mi SE 12.7 mph - N/A   Clear
3:35 AM 14.0 °F 0.5 °F 10.4 °F 86% 30.30 in 10.0 mi SE 11.5 mph - N/A   Clear
3:55 AM 14.0 °F 1.2 °F 10.4 °F 86% 30.29 in 10.0 mi SE 10.4 mph - N/A   Clear
4:15 AM 14.0 °F -0.8 °F 10.4 °F 86% 30.28 in 10.0 mi SSE 13.8 mph - N/A   Clear
4:35 AM 14.0 °F 0.5 °F 10.4 °F 86% 30.28 in 10.0 mi SSE 11.5 mph - N/A   Clear
4:55 AM 14.0 °F 0.5 °F 10.4 °F 86% 30.27 in 10.0 mi SE 11.5 mph 16.1 mph N/A   Clear
5:15 AM 14.0 °F 1.2 °F 10.4 °F 86% 30.27 in 10.0 mi SE 10.4 mph - N/A   Clear
5:35 AM 14.0 °F 0.5 °F 10.4 °F 86% 30.26 in 10.0 mi SE 11.5 mph - N/A   Clear
5:55 AM 15.8 °F 2.1 °F 12.2 °F 86% 30.25 in 10.0 mi SE 12.7 mph - N/A   Clear
6:15 AM 15.8 °F 2.7 °F 12.2 °F 86% 30.24 in 10.0 mi SE 11.5 mph - N/A   Clear
6:35 AM 15.8 °F 2.1 °F 14.0 °F 93% 30.23 in 10.0 mi SE 12.7 mph - N/A   Clear
6:55 AM 17.6 °F 4.3 °F 14.0 °F 86% 30.22 in 10.0 mi ESE 12.7 mph - N/A   Clear
7:15 AM 17.6 °F 3.7 °F 14.0 °F 86% 30.20 in 10.0 mi SE 13.8 mph - N/A   Clear
7:35 AM 17.6 °F 3.7 °F 14.0 °F 86% 30.19 in 10.0 mi SE 13.8 mph - N/A   Clear
7:55 AM 17.6 °F 4.3 °F 14.0 °F 86% 30.18 in 10.0 mi SE 12.7 mph - N/A   Clear
8:15 AM 19.4 °F 6.0 °F 15.8 °F 86% 30.17 in 10.0 mi SE 13.8 mph - N/A   Clear
8:35 AM 19.4 °F 6.6 °F 15.8 °F 86% 30.17 in 10.0 mi SE 12.7 mph - N/A   Clear
8:55 AM 19.4 °F 5.5 °F 15.8 °F 86% 30.16 in 10.0 mi SE 15.0 mph - N/A   Clear
9:15 AM 19.4 °F 7.2 °F 15.8 °F 86% 30.17 in 10.0 mi SE 11.5 mph 17.3 mph N/A   Clear
9:35 AM 23.0 °F 11.1 °F 17.6 °F 80% 30.17 in 10.0 mi SSE 12.7 mph 16.1 mph N/A   Clear
9:55 AM 24.8 °F 11.1 °F 17.6 °F 74% 30.14 in 10.0 mi SSE 18.4 mph 25.3 mph N/A   Clear
10:15 AM 26.6 °F 14.3 °F 17.6 °F 69% 30.13 in 10.0 mi SSE 16.1 mph 21.9 mph N/A   Clear
10:35 AM 26.6 °F 14.3 °F 17.6 °F 69% 30.13 in 10.0 mi SSE 16.1 mph 23.0 mph N/A   Clear
10:55 AM 28.4 °F 15.4 °F 19.4 °F 69% 30.11 in 10.0 mi South 19.6 mph 24.2 mph N/A   Clear
11:15 AM 28.4 °F 14.4 °F 19.4 °F 69% 30.10 in 10.0 mi South 23.0 mph 27.6 mph N/A   Clear
11:35 AM 32.0 °F 19.5 °F 19.4 °F 60% 30.09 in 10.0 mi South 21.9 mph 26.5 mph N/A   Clear
11:55 AM 32.0 °F 20.8 °F 19.4 °F 60% 30.09 in 10.0 mi South 17.3 mph 23.0 mph N/A   Clear
12:15 PM 32.0 °F 21.2 °F 19.4 °F 60% 30.08 in 10.0 mi South 16.1 mph - N/A   Clear
12:35 PM 32.0 °F 21.6 °F 19.4 °F 60% 30.08 in 10.0 mi South 15.0 mph - N/A   Clear
12:55 PM 32.0 °F 20.8 °F 19.4 °F 60% 30.07 in 10.0 mi South 17.3 mph 23.0 mph N/A   Clear
1:15 PM 32.0 °F 21.2 °F 21.2 °F 64% 30.06 in 10.0 mi South 16.1 mph 20.7 mph N/A   Clear
1:35 PM 32.0 °F 22.1 °F 21.2 °F 64% 30.05 in 10.0 mi South 13.8 mph 18.4 mph N/A   Clear
1:55 PM 33.8 °F 24.8 °F 21.2 °F 60% 30.04 in 10.0 mi South 12.7 mph 20.7 mph N/A   Clear
2:15 PM 33.8 °F 23.5 °F 21.2 °F 60% 30.03 in 10.0 mi South 16.1 mph 19.6 mph N/A   Clear
2:35 PM 33.8 °F 24.8 °F 23.0 °F 65% 30.01 in 10.0 mi South 12.7 mph 20.7 mph N/A   Clear
2:55 PM 33.8 °F 23.9 °F 23.0 °F 65% 29.99 in 10.0 mi SSE 15.0 mph 19.6 mph N/A   Clear
3:15 PM 33.8 °F 22.8 °F 23.0 °F 65% 29.99 in 10.0 mi South 18.4 mph - N/A   Clear
3:35 PM 33.8 °F 23.9 °F 23.0 °F 65% 30.00 in 10.0 mi South 15.0 mph - N/A   Clear
3:55 PM 33.8 °F 25.3 °F 23.0 °F 65% 30.00 in 10.0 mi South 11.5 mph - N/A   Clear
4:15 PM 32.0 °F 25.6 °F 23.0 °F 69% 30.00 in 10.0 mi South 6.9 mph - N/A   Clear
4:35 PM 32.0 °F 24.8 °F 21.2 °F 64% 29.99 in 10.0 mi South 8.1 mph - N/A   Clear
4:55 PM 28.4 °F 20.4 °F 19.4 °F 69% 30.00 in 10.0 mi South 8.1 mph - N/A   Clear
5:15 PM 26.6 °F 19.1 °F 19.4 °F 74% 30.00 in 10.0 mi SSE 6.9 mph - N/A   Clear
5:35 PM 24.8 °F 16.9 °F 17.6 °F 74% 29.99 in 10.0 mi SSE 6.9 mph - N/A   Clear
5:55 PM 23.0 °F 13.9 °F 17.6 °F 80% 29.99 in 10.0 mi SSE 8.1 mph - N/A   Clear
6:15 PM 23.0 °F 14.7 °F 19.4 °F 86% 30.00 in 10.0 mi South 6.9 mph - N/A   Clear
6:35 PM 23.0 °F 15.8 °F 19.4 °F 86% 29.99 in 10.0 mi South 5.8 mph - N/A   Clear
6:55 PM 23.0 °F 14.7 °F 19.4 °F 86% 29.99 in 10.0 mi SSE 6.9 mph - N/A   Clear
7:15 PM 23.0 °F 17.0 °F 19.4 °F 86% 30.00 in 10.0 mi SSE 4.6 mph - N/A   Clear
7:35 PM 23.0 °F 18.4 °F 19.4 °F 86% 29.99 in 10.0 mi SE 3.5 mph - N/A   Clear
7:55 PM 23.0 °F 14.7 °F 19.4 °F 86% 30.00 in 10.0 mi SE 6.9 mph - N/A   Clear
8:15 PM 21.2 °F 12.6 °F 19.4 °F 93% 29.99 in 10.0 mi SSE 6.9 mph - N/A   Clear
8:35 PM 19.4 °F 8.6 °F 17.6 °F 93% 29.98 in 10.0 mi SSE 9.2 mph - N/A   Clear
8:55 PM 19.4 °F 11.5 °F 17.6 °F 93% 29.98 in 10.0 mi South 5.8 mph - N/A   Clear
9:15 PM 21.2 °F 16.4 °F 19.4 °F 93% 29.98 in 10.0 mi SSW 3.5 mph - N/A   Clear
9:35 PM 21.2 °F 16.4 °F 19.4 °F 93% 29.99 in 10.0 mi SSW 3.5 mph - N/A   Clear
9:55 PM 21.2 °F 14.9 °F 19.4 °F 93% 29.98 in 10.0 mi SSW 4.6 mph - N/A   Clear
10:15 PM 19.4 °F 11.5 °F 19.4 °F 100% 29.98 in 10.0 mi SW 5.8 mph - N/A   Clear
10:35 PM 19.4 °F 12.8 °F 17.6 °F 93% 29.97 in 10.0 mi SSW 4.6 mph - N/A   Clear
10:55 PM 19.4 °F 12.8 °F 19.4 °F 100% 29.97 in 10.0 mi SW 4.6 mph - N/A   Clear
11:15 PM 19.4 °F 12.8 °F 17.6 °F 93% 29.97 in 10.0 mi SW 4.6 mph - N/A   Clear
11:35 PM 19.4 °F 14.3 °F 19.4 °F 100% 29.98 in 10.0 mi SSW 3.5 mph - N/A   Clear
11:55 PM 19.4 °F 12.8 °F 19.4 °F 100% 29.99 in 10.0 mi WSW 4.6 mph - N/A   Clear